LKW-2

导读

LKW-2(陆地资源勘查卫星二号)是中国自主研发的陆地遥感卫星,于北京时间2017年12月23日由长征二号丁运载火箭在酒泉卫星发射中心成功发射入轨。该卫星主要服务于陆地资源勘查开发、生态环境监测、国土测绘及农业估产等领域,可获取高分辨率地表遥感数据,为国民经济建设、自然资源管理提供重要空间信息支撑,进一步完善了中国陆地遥感卫星观测体系。

基本信息
目录编号:
43080
目录名称:
LKW-2
国际标识:
2017-084A
轨道中心:
EARTH
卫星名称:
LKW-2
卫星全名:
--
卫星状态:
在轨 (已飞行3098 天)
发射日期:
2017-12-23 UTC
国别 :
中国 (CN)
星等 :
--
轨道信息
数据来源 国际轨道数据 AOE轨道数据
星历时间 2026-06-17T11:49:51+0800
7小时前
查看轨道信息
2026-06-16T23:00:00+0800
19小时前
查看轨道信息
半长轴 6864.908km 6864.928km
偏心率 0.0001131 0.0000958
轨道倾角 97.119° 97.119°
近地点辐角 173.488° 141.237°
升交点赤经 207.956° 207.448°
平近点角 186.637° 163.140°
近地点 485.994km 486.133km
远地点 487.548km 487.449km
周期 94.343分钟 94.344分钟
每日圈数 15.263379 15.263315
详细信息
使用方式:
暂无
2D轨道图
3D轨道图
轨道高度分析图
轨道倾角分析图
轨道综合分析图
查看轨道综合分析图